When you browse on this site, cookies collect data to enhance your experience and personalize the content and advertising you see.
Visit our Privacy Policy to learn more. By continuing to use the site, you agree to this use of cookies and data.

Meteo orario Carmarthen

Oggi, 6 Luglio, Lunedi

Tempo Temperatura Precipitazioni Vento Pressione Umidità
00:00 +8°C° 0 mm 9 m/s 754 mm Hg 88%
01:00 +8°C° 0 mm 9 m/s 755 mm Hg 87%
02:00 +10°C° 0 mm 9 m/s 755 mm Hg 87%
03:00 +10°C° 0 mm 9 m/s 756 mm Hg 86%
04:00 +10°C° 0 mm 9 m/s 757 mm Hg 87%
05:00 +10°C° 0 mm 9 m/s 757 mm Hg 88%
06:00 +10°C° 0 mm 8 m/s 758 mm Hg 89%
07:00 +11°C° 0 mm 8 m/s 759 mm Hg 84%
08:00 +12°C° 0 mm 8 m/s 760 mm Hg 79%
09:00 +12°C° 0 mm 8 m/s 761 mm Hg 74%
10:00 +13°C° 0 mm 8 m/s 762 mm Hg 71%
11:00 +15°C° 0 mm 7 m/s 762 mm Hg 69%
12:00 +15°C° 0 mm 7 m/s 762 mm Hg 66%
13:00 +15°C° 0 mm 6 m/s 763 mm Hg 66%
14:00 +15°C° 0 mm 6 m/s 763 mm Hg 67%
15:00 +16°C° 0 mm 6 m/s 764 mm Hg 67%
16:00 +15°C° 0 mm 5 m/s 764 mm Hg 69%
17:00 +15°C° 0 mm 5 m/s 764 mm Hg 72%
18:00 +14°C° 0 mm 5 m/s 764 mm Hg 74%
19:00 +13°C° 0 mm 4 m/s 764 mm Hg 80%
20:00 +11°C° 0 mm 3 m/s 764 mm Hg 85%
21:00 +10°C° 0 mm 2 m/s 764 mm Hg 91%
22:00 +10°C° 0 mm 2 m/s 764 mm Hg 91%
23:00 +9°C° 0 mm 2 m/s 763 mm Hg 92%

Domani, 7 Luglio, Martedi

Tempo Temperatura Precipitazioni Vento Pressione Umidità
00:00 +9°C° 0 mm 2 m/s 763 mm Hg 93%
01:00 +9°C° 0 mm 2 m/s 763 mm Hg 93%
02:00 +9°C° 0 mm 3 m/s 762 mm Hg 94%
03:00 +9°C° 0 mm 3 m/s 762 mm Hg 94%
04:00 +9°C° 0.1 mm 3 m/s 761 mm Hg 94%
05:00 +9°C° 0.1 mm 3 m/s 761 mm Hg 95%
06:00 +9°C° 0.1 mm 3 m/s 760 mm Hg 95%
07:00 +8°C° 0.5 mm 4 m/s 760 mm Hg 96%
08:00 +10°C° 0.5 mm 4 m/s 759 mm Hg 96%
09:00 +9°C° 0.5 mm 5 m/s 759 mm Hg 97%
10:00 +9°C° 0.9 mm 5 m/s 758 mm Hg 96%
11:00 +9°C° 0.9 mm 6 m/s 758 mm Hg 96%
12:00 +9°C° 0.9 mm 6 m/s 757 mm Hg 96%
13:00 +10°C° 0.6 mm 5 m/s 757 mm Hg 96%
14:00 +12°C° 0.6 mm 4 m/s 757 mm Hg 96%
15:00 +14°C° 0.6 mm 2 m/s 756 mm Hg 96%
16:00 +13°C° 0.3 mm 3 m/s 756 mm Hg 95%
17:00 +13°C° 0.3 mm 4 m/s 756 mm Hg 95%
18:00 +12°C° 0.3 mm 4 m/s 756 mm Hg 95%
19:00 +12°C° 0 mm 4 m/s 757 mm Hg 95%
20:00 +10°C° 0 mm 5 m/s 757 mm Hg 95%
21:00 +9°C° 0 mm 5 m/s 758 mm Hg 95%
22:00 +9°C° 0 mm 5 m/s 758 mm Hg 95%
23:00 +8°C° 0 mm 5 m/s 759 mm Hg 96%

Dopodomani, 8 Luglio, Mercoledi

Tempo Temperatura Precipitazioni Vento Pressione Umidità
00:00 +7°C° 0 mm 5 m/s 759 mm Hg 96%
01:00 +7°C° 0 mm 4 m/s 759 mm Hg 96%
02:00 +7°C° 0 mm 4 m/s 760 mm Hg 96%
03:00 +7°C° 0 mm 4 m/s 760 mm Hg 96%
04:00 +8°C° 0 mm 4 m/s 760 mm Hg 96%
05:00 +9°C° 0 mm 3 m/s 760 mm Hg 96%
06:00 +10°C° 0 mm 3 m/s 761 mm Hg 95%
07:00 +12°C° 0 mm 2 m/s 761 mm Hg 90%
08:00 +13°C° 0 mm 2 m/s 761 mm Hg 85%
09:00 +15°C° 0 mm 1 m/s 761 mm Hg 81%
10:00 +15°C° 0 mm 2 m/s 761 mm Hg 79%
11:00 +16°C° 0 mm 2 m/s 761 mm Hg 77%
12:00 +16°C° 0 mm 2 m/s 761 mm Hg 75%
13:00 +14°C° 0.2 mm 3 m/s 761 mm Hg 81%
14:00 +13°C° 0.2 mm 3 m/s 761 mm Hg 87%
15:00 +12°C° 0.2 mm 4 m/s 761 mm Hg 93%
16:00 +12°C° 0.4 mm 4 m/s 760 mm Hg 94%
17:00 +11°C° 0.4 mm 4 m/s 760 mm Hg 95%
18:00 +11°C° 0.4 mm 4 m/s 759 mm Hg 96%
19:00 +10°C° 2 mm 5 m/s 759 mm Hg 97%
20:00 +10°C° 2 mm 7 m/s 758 mm Hg 97%
21:00 +11°C° 2 mm 8 m/s 757 mm Hg 97%
22:00 +11°C° 0.8 mm 8 m/s 757 mm Hg 97%
23:00 +12°C° 0.8 mm 8 m/s 756 mm Hg 97%

9 Luglio, Giovedi

Tempo Temperatura Precipitazioni Vento Pressione Umidità
00:00 +13°C° 0.8 mm 8 m/s 755 mm Hg 97%
01:00 +13°C° 0.2 mm 8 m/s 754 mm Hg 97%
02:00 +13°C° 0.2 mm 8 m/s 753 mm Hg 96%
03:00 +15°C° 0.2 mm 8 m/s 752 mm Hg 96%
04:00 +15°C° 0.3 mm 8 m/s 751 mm Hg 96%
05:00 +15°C° 0.3 mm 8 m/s 751 mm Hg 96%
06:00 +15°C° 0.3 mm 8 m/s 750 mm Hg 96%
07:00 +15°C° 0.1 mm 8 m/s 751 mm Hg 95%
08:00 +15°C° 0.1 mm 8 m/s 751 mm Hg 93%
09:00 +15°C° 0.1 mm 9 m/s 751 mm Hg 92%
10:00 +15°C° 0 mm 9 m/s 752 mm Hg 88%
11:00 +13°C° 0 mm 10 m/s 753 mm Hg 83%
12:00 +13°C° 0 mm 10 m/s 753 mm Hg 79%
13:00 +13°C° 0 mm 11 m/s 754 mm Hg 76%
14:00 +13°C° 0 mm 11 m/s 755 mm Hg 73%
15:00 +13°C° 0 mm 11 m/s 755 mm Hg 70%
16:00 +13°C° 0 mm 10 m/s 756 mm Hg 71%
17:00 +12°C° 0 mm 10 m/s 756 mm Hg 72%
18:00 +12°C° 0 mm 10 m/s 757 mm Hg 72%
19:00 +11°C° 0 mm 10 m/s 757 mm Hg 75%
20:00 +10°C° 0 mm 9 m/s 758 mm Hg 77%
21:00 +8°C° 0 mm 9 m/s 759 mm Hg 79%
22:00 +8°C° 0 mm 9 m/s 759 mm Hg 81%
23:00 +8°C° 0 mm 9 m/s 759 mm Hg 83%

10 Luglio, Venerdi

Tempo Temperatura Precipitazioni Vento Pressione Umidità
00:00 +7°C° 0 mm 9 m/s 759 mm Hg 85%
01:00 +7°C° 0 mm 8 m/s 759 mm Hg 87%
02:00 +7°C° 0 mm 8 m/s 760 mm Hg 89%
03:00 +6°C° 0 mm 7 m/s 760 mm Hg 92%
04:00 +8°C° 0 mm 7 m/s 760 mm Hg 91%
05:00 +8°C° 0 mm 7 m/s 760 mm Hg 89%
06:00 +9°C° 0 mm 7 m/s 761 mm Hg 88%
07:00 +10°C° 0 mm 7 m/s 761 mm Hg 85%
08:00 +11°C° 0 mm 6 m/s 761 mm Hg 81%
09:00 +13°C° 0 mm 6 m/s 762 mm Hg 78%
10:00 +14°C° 0.1 mm 7 m/s 762 mm Hg 75%
11:00 +14°C° 0.1 mm 7 m/s 762 mm Hg 73%
12:00 +15°C° 0.1 mm 7 m/s 763 mm Hg 71%
13:00 +15°C° 0 mm 7 m/s 763 mm Hg 69%
14:00 +15°C° 0 mm 7 m/s 763 mm Hg 68%
15:00 +15°C° 0 mm 8 m/s 763 mm Hg 66%
16:00 +15°C° 0 mm 7 m/s 763 mm Hg 68%
17:00 +14°C° 0 mm 7 m/s 764 mm Hg 70%
18:00 +14°C° 0 mm 7 m/s 764 mm Hg 71%
19:00 +11°C° 0 mm 6 m/s 764 mm Hg 77%
20:00 +10°C° 0 mm 5 m/s 764 mm Hg 83%
21:00 +8°C° 0 mm 4 m/s 765 mm Hg 89%
22:00 +8°C° 0 mm 4 m/s 765 mm Hg 91%
23:00 +7°C° 0 mm 4 m/s 765 mm Hg 93%

11 Luglio, Sabato

Tempo Temperatura Precipitazioni Vento Pressione Umidità
00:00 +6°C° 0 mm 4 m/s 765 mm Hg 94%
01:00 +6°C° 0 mm 4 m/s 765 mm Hg 94%
02:00 +6°C° 0 mm 4 m/s 765 mm Hg 95%
03:00 +6°C° 0 mm 4 m/s 765 mm Hg 95%
04:00 +6°C° 0 mm 4 m/s 766 mm Hg 94%
05:00 +7°C° 0 mm 4 m/s 766 mm Hg 93%
06:00 +7°C° 0 mm 4 m/s 766 mm Hg 92%
07:00 +10°C° 0 mm 4 m/s 766 mm Hg 87%
08:00 +12°C° 0 mm 3 m/s 766 mm Hg 82%
09:00 +13°C° 0 mm 3 m/s 766 mm Hg 77%
10:00 +14°C° 0 mm 3 m/s 766 mm Hg 75%
11:00 +16°C° 0 mm 2 m/s 767 mm Hg 73%
12:00 +16°C° 0 mm 2 m/s 767 mm Hg 72%
13:00 +16°C° 0.1 mm 2 m/s 767 mm Hg 72%
14:00 +17°C° 0.1 mm 3 m/s 767 mm Hg 72%
15:00 +17°C° 0.1 mm 3 m/s 767 mm Hg 72%
16:00 +16°C° 0 mm 3 m/s 767 mm Hg 75%
17:00 +16°C° 0 mm 3 m/s 767 mm Hg 78%
18:00 +14°C° 0 mm 3 m/s 767 mm Hg 81%
19:00 +13°C° 0 mm 3 m/s 767 mm Hg 85%
20:00 +11°C° 0 mm 3 m/s 767 mm Hg 88%
21:00 +10°C° 0 mm 2 m/s 768 mm Hg 92%
22:00 +9°C° 0 mm 2 m/s 768 mm Hg 92%
23:00 +9°C° 0 mm 2 m/s 768 mm Hg 92%
Mostrare altro